Location: Izdebno
(52.6670°N, 16.2170°E)
Time: 10:12:17
(UTC+01:00)

Transit 2A - Pass Details

Date: 29 January 2023
Orbit: 591 x 964 km, 66.7° (Epoch: 21 March)

Event Time Altitude Azimuth Distance (km) Brightness Sun altitude
Rises 02:05:11 0° 320° (NW) 3,399 - -48.5°
Reaches altitude 10° 02:07:35 10° 322° (NW) 2,513 - -48.3°
Maximum altitude 02:13:28 71° 47° (NE) 968 - -47.6°
Drops below altitude 10° 02:19:46 10° 132° (SE) 2,678 - -46.9°
Sets 02:22:23 0° 134° (SE) 3,636 - -46.6°
